Time,TemperatureF,DewpointF,PressureIn,WindDirection,WindDirectionDegrees,WindSpeedMPH,WindSpeedGustMPH,Humidity,HourlyPrecipIn,Conditions,Clouds,dailyrainin,SoftwareType,DateUTC
2013-02-24 00:02:00,24.3,20.4,28.91,West,270,3.1,3.1,85,0.00,,---,0.00,VWS V14.01,2013-02-24 06:02:00,
2013-02-24 00:07:00,24.3,20.1,28.91,West,270,2.7,2.7,84,0.00,,---,0.00,VWS V14.01,2013-02-24 06:07:00,
2013-02-24 00:12:00,24.3,20.4,28.91,West,270,2.7,2.7,85,0.00,,---,0.00,VWS V14.01,2013-02-24 06:12:00,
2013-02-24 00:17:00,24.1,20.2,28.91,West,270,0.0,0.0,85,0.00,,---,0.00,VWS V14.01,2013-02-24 06:17:00,
2013-02-24 00:22:00,24.1,20.2,28.91,West,270,0.0,2.2,85,0.00,,---,0.00,VWS V14.01,2013-02-24 06:22:00,
2013-02-24 00:27:00,24.1,20.2,28.91,West,270,0.0,0.0,85,0.00,,---,0.00,VWS V14.01,2013-02-24 06:27:00,
2013-02-24 00:32:00,24.1,20.2,28.94,West,270,3.1,3.1,85,0.00,,---,0.00,VWS V14.01,2013-02-24 06:32:00,
2013-02-24 00:37:00,24.1,20.2,28.94,West,270,0.0,2.7,85,0.00,,---,0.00,VWS V14.01,2013-02-24 06:37:00,
2013-02-24 00:42:00,23.9,20.1,28.94,West,270,2.2,2.7,85,0.00,,---,0.00,VWS V14.01,2013-02-24 06:42:00,
2013-02-24 00:47:00,23.9,20.1,28.94,West,270,2.7,3.1,85,0.00,,---,0.00,VWS V14.01,2013-02-24 06:47:00,
2013-02-24 00:52:00,23.9,20.1,28.94,West,270,0.0,0.0,85,0.00,,---,0.00,VWS V14.01,2013-02-24 06:52:00,
2013-02-24 00:57:00,23.9,20.1,28.94,West,270,2.7,3.6,85,0.00,,---,0.00,VWS V14.01,2013-02-24 06:57:00,
2013-02-24 01:02:00,23.9,20.1,28.94,West,270,2.2,2.7,85,0.00,,---,0.00,VWS V14.01,2013-02-24 07:02:00,
2013-02-24 01:08:00,23.9,20.1,28.94,West,270,0.0,0.0,85,0.00,,---,0.00,VWS V14.01,2013-02-24 07:08:00,
2013-02-24 01:13:00,23.7,19.9,28.94,West,270,2.2,3.1,85,0.00,,---,0.00,VWS V14.01,2013-02-24 07:13:00,
2013-02-24 01:18:00,23.7,19.9,28.94,West,270,2.2,2.7,85,0.00,,---,0.00,VWS V14.01,2013-02-24 07:18:00,
2013-02-24 01:23:00,23.7,19.9,28.94,West,270,0.0,0.0,85,0.00,,---,0.00,VWS V14.01,2013-02-24 07:23:00,
2013-02-24 01:28:00,23.7,19.9,28.94,West,270,3.1,3.1,85,0.00,,---,0.00,VWS V14.01,2013-02-24 07:28:00,
2013-02-24 01:33:00,23.7,19.9,28.94,West,270,2.7,2.7,85,0.00,,---,0.00,VWS V14.01,2013-02-24 07:33:00,
2013-02-24 01:38:00,23.7,19.9,28.94,West,270,2.7,3.1,85,0.00,,---,0.00,VWS V14.01,2013-02-24 07:38:00,
2013-02-24 01:43:00,23.5,19.7,28.94,West,270,2.7,2.7,85,0.00,,---,0.00,VWS V14.01,2013-02-24 07:43:00,
2013-02-24 01:48:00,23.5,19.7,28.94,West,270,3.1,3.1,85,0.00,,---,0.00,VWS V14.01,2013-02-24 07:48:00,
2013-02-24 01:53:00,23.5,19.4,28.94,West,270,2.7,3.6,84,0.00,,---,0.00,VWS V14.01,2013-02-24 07:53:00,
2013-02-24 01:58:00,23.5,19.4,28.94,West,270,2.2,3.1,84,0.00,,---,0.00,VWS V14.01,2013-02-24 07:58:00,
2013-02-24 02:03:00,23.5,19.4,28.94,West,270,3.1,3.6,84,0.00,,---,0.00,VWS V14.01,2013-02-24 08:03:00,
2013-02-24 02:08:00,23.5,19.4,28.94,West,270,2.7,3.6,84,0.00,,---,0.00,VWS V14.01,2013-02-24 08:08:00,
2013-02-24 02:14:00,23.5,19.4,28.94,West,270,3.1,4.5,84,0.00,,---,0.00,VWS V14.01,2013-02-24 08:14:00,
2013-02-24 02:19:00,23.5,19.4,28.94,West,270,2.7,4.5,84,0.00,,---,0.00,VWS V14.01,2013-02-24 08:19:00,
2013-02-24 02:24:00,23.5,19.4,28.94,West,270,2.7,2.7,84,0.00,,---,0.00,VWS V14.01,2013-02-24 08:24:00,
2013-02-24 02:29:00,23.4,19.2,28.94,West,270,3.1,4.0,84,0.00,,---,0.00,VWS V14.01,2013-02-24 08:29:00,
2013-02-24 02:34:00,23.4,19.2,28.94,West,270,3.6,4.9,84,0.00,,---,0.00,VWS V14.01,2013-02-24 08:34:00,
2013-02-24 02:39:00,23.4,19.2,28.94,West,270,3.1,3.1,84,0.00,,---,0.00,VWS V14.01,2013-02-24 08:39:00,
2013-02-24 02:44:00,23.4,19.2,28.94,West,270,3.1,3.1,84,0.00,,---,0.00,VWS V14.01,2013-02-24 08:44:00,
2013-02-24 02:49:00,23.4,19.2,28.94,West,270,2.7,3.1,84,0.00,,---,0.00,VWS V14.01,2013-02-24 08:49:00,
2013-02-24 02:54:00,23.2,19.1,28.94,West,270,2.7,3.1,84,0.00,,---,0.00,VWS V14.01,2013-02-24 08:54:00,
2013-02-24 02:59:00,23.2,19.1,28.94,West,270,0.0,2.2,84,0.00,,---,0.00,VWS V14.01,2013-02-24 08:59:00,
2013-02-24 03:04:00,23.0,19.2,28.94,West,270,0.0,0.0,85,0.00,,---,0.00,VWS V14.01,2013-02-24 09:04:00,
2013-02-24 03:09:00,23.0,19.2,28.94,West,270,0.0,0.0,85,0.00,,---,0.00,VWS V14.01,2013-02-24 09:09:00,
2013-02-24 03:14:00,23.0,19.2,28.94,West,270,0.0,2.7,85,0.00,,---,0.00,VWS V14.01,2013-02-24 09:14:00,
2013-02-24 03:19:00,22.8,19.0,28.94,West,270,0.0,0.0,85,0.00,,---,0.00,VWS V14.01,2013-02-24 09:19:00,
2013-02-24 03:25:00,22.8,19.0,28.94,West,270,0.0,0.0,85,0.00,,---,0.00,VWS V14.01,2013-02-24 09:25:00,
2013-02-24 03:30:00,22.8,19.0,28.94,West,270,2.2,2.2,85,0.00,,---,0.00,VWS V14.01,2013-02-24 09:30:00,
2013-02-24 03:35:00,22.8,19.0,28.94,West,270,0.0,0.0,85,0.00,,---,0.00,VWS V14.01,2013-02-24 09:35:00,
2013-02-24 03:40:00,22.8,19.0,28.94,West,270,2.7,2.7,85,0.00,,---,0.00,VWS V14.01,2013-02-24 09:40:00,
2013-02-24 03:45:00,22.8,19.0,28.94,West,270,2.7,2.7,85,0.00,,---,0.00,VWS V14.01,2013-02-24 09:45:00,
2013-02-24 03:50:00,22.8,19.0,28.94,West,270,0.0,0.0,85,0.00,,---,0.00,VWS V14.01,2013-02-24 09:50:00,
2013-02-24 03:55:00,22.8,19.0,28.94,West,270,0.0,3.1,85,0.00,,---,0.00,VWS V14.01,2013-02-24 09:55:00,
2013-02-24 04:00:00,22.8,19.0,28.94,West,270,2.7,2.7,85,0.00,,---,0.00,VWS V14.01,2013-02-24 10:00:00,
2013-02-24 04:05:00,22.8,19.0,28.94,West,270,0.0,0.0,85,0.00,,---,0.00,VWS V14.01,2013-02-24 10:05:00,
2013-02-24 04:10:00,22.6,18.8,28.94,West,270,2.7,3.1,85,0.00,,---,0.00,VWS V14.01,2013-02-24 10:10:00,
2013-02-24 04:15:00,22.5,18.6,28.97,West,270,2.7,3.1,85,0.00,,---,0.00,VWS V14.01,2013-02-24 10:15:00,
2013-02-24 04:20:00,22.5,18.6,28.97,West,270,2.7,3.1,85,0.00,,---,0.00,VWS V14.01,2013-02-24 10:20:00,
2013-02-24 04:25:00,22.3,18.7,28.97,West,270,2.7,3.1,86,0.00,,---,0.00,VWS V14.01,2013-02-24 10:25:00,
2013-02-24 04:30:00,22.3,18.7,28.97,West,270,2.2,3.1,86,0.00,,---,0.00,VWS V14.01,2013-02-24 10:30:00,
2013-02-24 04:35:00,22.1,18.6,28.97,West,270,3.1,4.0,86,0.00,,---,0.00,VWS V14.01,2013-02-24 10:35:00,
2013-02-24 04:40:00,22.1,18.6,28.97,West,270,3.1,3.1,86,0.00,,---,0.00,VWS V14.01,2013-02-24 10:40:00,
2013-02-24 04:46:00,22.1,18.6,28.97,West,270,0.0,0.0,86,0.00,,---,0.00,VWS V14.01,2013-02-24 10:46:00,
2013-02-24 04:51:00,21.9,18.4,28.97,West,270,0.0,0.0,86,0.00,,---,0.00,VWS V14.01,2013-02-24 10:51:00,
2013-02-24 04:56:00,21.9,18.4,28.97,West,270,0.0,0.0,86,0.00,,---,0.00,VWS V14.01,2013-02-24 10:56:00,
2013-02-24 05:01:00,21.6,18.0,28.97,West,270,2.7,2.7,86,0.00,,---,0.00,VWS V14.01,2013-02-24 11:01:00,
2013-02-24 05:06:00,21.4,17.9,28.97,West,270,0.0,0.0,86,0.00,,---,0.00,VWS V14.01,2013-02-24 11:06:00,
2013-02-24 05:11:00,21.2,17.7,28.97,West,270,0.0,0.0,86,0.00,,---,0.00,VWS V14.01,2013-02-24 11:11:00,
2013-02-24 05:16:00,20.8,17.3,28.97,West,270,0.0,0.0,86,0.00,,---,0.00,VWS V14.01,2013-02-24 11:16:00,
2013-02-24 05:21:00,20.7,17.1,28.97,West,270,0.0,0.0,86,0.00,,---,0.00,VWS V14.01,2013-02-24 11:21:00,
2013-02-24 05:26:00,20.7,17.1,28.97,West,270,0.0,0.0,86,0.00,,---,0.00,VWS V14.01,2013-02-24 11:26:00,
2013-02-24 05:31:00,19.9,16.4,28.97,West,270,0.0,0.0,86,0.00,,---,0.00,VWS V14.01,2013-02-24 11:31:00,
2013-02-24 05:36:00,19.4,15.9,28.97,West,270,0.0,0.0,86,0.00,,---,0.00,VWS V14.01,2013-02-24 11:36:00,
2013-02-24 05:41:00,18.7,15.2,28.97,West,270,0.0,0.0,86,0.00,,---,0.00,VWS V14.01,2013-02-24 11:41:00,
2013-02-24 05:46:00,18.1,14.7,28.97,West,270,0.0,0.0,86,0.00,,---,0.00,VWS V14.01,2013-02-24 11:46:00,
2013-02-24 05:51:00,18.5,15.6,28.97,West,270,0.0,0.0,88,0.00,,---,0.00,VWS V14.01,2013-02-24 11:51:00,
2013-02-24 05:56:00,18.3,15.6,28.97,West,270,0.0,0.0,89,0.00,,---,0.00,VWS V14.01,2013-02-24 11:56:00,
2013-02-24 06:01:00,18.3,15.6,28.97,West,270,0.0,0.0,89,0.00,,---,0.00,VWS V14.01,2013-02-24 12:01:00,
2013-02-24 06:07:00,18.7,16.2,28.97,West,270,0.0,0.0,90,0.00,,---,0.00,VWS V14.01,2013-02-24 12:07:00,
2013-02-24 06:12:00,19.0,16.9,28.97,West,270,0.0,0.0,91,0.00,,---,0.00,VWS V14.01,2013-02-24 12:12:00,
2013-02-24 06:17:00,19.0,16.9,29.00,West,270,0.0,0.0,91,0.00,,---,0.00,VWS V14.01,2013-02-24 12:17:00,
2013-02-24 06:22:00,19.2,17.3,29.00,West,270,2.7,2.7,92,0.00,,---,0.00,VWS V14.01,2013-02-24 12:22:00,
2013-02-24 06:27:00,19.2,17.3,29.00,West,270,0.0,0.0,92,0.00,,---,0.00,VWS V14.01,2013-02-24 12:27:00,
2013-02-24 06:32:00,18.7,16.8,29.00,West,270,0.0,0.0,92,0.00,,---,0.00,VWS V14.01,2013-02-24 12:32:00,
2013-02-24 06:37:00,18.5,16.6,29.00,West,270,2.7,2.7,92,0.00,,---,0.00,VWS V14.01,2013-02-24 12:37:00,
2013-02-24 06:42:00,18.1,16.2,29.00,West,270,0.0,2.2,92,0.00,,---,0.00,VWS V14.01,2013-02-24 12:42:00,
2013-02-24 06:47:00,18.1,16.2,29.00,West,270,0.0,0.0,92,0.00,,---,0.00,VWS V14.01,2013-02-24 12:47:00,
2013-02-24 06:52:00,18.0,16.0,29.00,West,270,0.0,0.0,92,0.00,,---,0.00,VWS V14.01,2013-02-24 12:52:00,
2013-02-24 06:57:00,17.6,15.7,29.00,West,270,0.0,0.0,92,0.00,,---,0.00,VWS V14.01,2013-02-24 12:57:00,
2013-02-24 07:02:00,17.6,15.7,29.00,West,270,0.0,0.0,92,0.00,,---,0.00,VWS V14.01,2013-02-24 13:02:00,
2013-02-24 07:07:00,17.1,15.1,29.00,West,270,0.0,0.0,92,0.00,,---,0.00,VWS V14.01,2013-02-24 13:07:00,
2013-02-24 07:12:00,17.2,15.3,29.00,West,270,0.0,0.0,92,0.00,,---,0.00,VWS V14.01,2013-02-24 13:12:00,
2013-02-24 07:18:00,17.1,15.1,29.00,West,270,0.0,0.0,92,0.00,,---,0.00,VWS V14.01,2013-02-24 13:18:00,
2013-02-24 07:23:00,16.7,14.8,29.00,West,270,0.0,0.0,92,0.00,,---,0.00,VWS V14.01,2013-02-24 13:23:00,
2013-02-24 07:28:00,16.3,14.4,29.00,West,270,0.0,0.0,92,0.00,,---,0.00,VWS V14.01,2013-02-24 13:28:00,
2013-02-24 07:33:00,16.2,14.2,29.00,West,270,0.0,0.0,92,0.00,,---,0.00,VWS V14.01,2013-02-24 13:33:00,
2013-02-24 07:38:00,15.8,13.9,29.00,West,270,0.0,0.0,92,0.00,,---,0.00,VWS V14.01,2013-02-24 13:38:00,
2013-02-24 07:43:00,15.6,13.7,29.00,West,270,0.0,0.0,92,0.00,,---,0.00,VWS V14.01,2013-02-24 13:43:00,
2013-02-24 07:48:00,16.0,14.1,29.00,West,270,0.0,0.0,92,0.00,,---,0.00,VWS V14.01,2013-02-24 13:48:00,
2013-02-24 07:53:00,16.0,14.1,29.00,West,270,0.0,0.0,92,0.00,,---,0.00,VWS V14.01,2013-02-24 13:53:00,
2013-02-24 07:58:00,16.0,14.1,29.03,West,270,0.0,0.0,92,0.00,,---,0.00,VWS V14.01,2013-02-24 13:58:00,
2013-02-24 08:03:00,16.3,14.4,29.03,West,270,0.0,0.0,92,0.00,,---,0.00,VWS V14.01,2013-02-24 14:03:00,
2013-02-24 08:08:00,16.7,14.8,29.03,West,270,0.0,0.0,92,0.00,,---,0.00,VWS V14.01,2013-02-24 14:08:00,
2013-02-24 08:14:00,16.7,14.8,29.03,West,270,0.0,0.0,92,0.00,,---,0.00,VWS V14.01,2013-02-24 14:14:00,
2013-02-24 08:19:00,17.2,15.3,29.03,West,270,0.0,0.0,92,0.00,,---,0.00,VWS V14.01,2013-02-24 14:19:00,
2013-02-24 08:24:00,17.6,15.7,29.03,West,270,0.0,0.0,92,0.00,,---,0.00,VWS V14.01,2013-02-24 14:24:00,
2013-02-24 08:29:00,18.1,16.2,29.00,West,270,0.0,0.0,92,0.00,,---,0.00,VWS V14.01,2013-02-24 14:29:00,
2013-02-24 08:34:00,18.3,16.1,29.00,West,270,0.0,0.0,91,0.00,,---,0.00,VWS V14.01,2013-02-24 14:34:00,
2013-02-24 08:39:00,18.7,16.5,29.00,West,270,0.0,0.0,91,0.00,,---,0.00,VWS V14.01,2013-02-24 14:39:00,
2013-02-24 08:44:00,19.0,16.6,29.03,West,270,0.0,0.0,90,0.00,,---,0.00,VWS V14.01,2013-02-24 14:44:00,
2013-02-24 08:49:00,19.4,16.7,29.03,West,270,0.0,0.0,89,0.00,,---,0.00,VWS V14.01,2013-02-24 14:49:00,
2013-02-24 08:54:00,19.8,16.8,29.03,West,270,2.7,2.7,88,0.00,,---,0.00,VWS V14.01,2013-02-24 14:54:00,
2013-02-24 08:59:00,20.1,16.6,29.03,West,270,3.1,3.1,86,0.00,,---,0.00,VWS V14.01,2013-02-24 14:59:00,
2013-02-24 09:04:00,20.5,16.7,29.03,West,270,0.0,0.0,85,0.00,,---,0.00,VWS V14.01,2013-02-24 15:04:00,
2013-02-24 09:10:00,20.8,16.8,29.03,West,270,0.0,0.0,84,0.00,,---,0.00,VWS V14.01,2013-02-24 15:10:00,
2013-02-24 09:15:00,21.0,16.4,29.03,West,270,0.0,0.0,82,0.00,,---,0.00,VWS V14.01,2013-02-24 15:15:00,
2013-02-24 09:20:00,21.2,16.3,29.03,West,270,0.0,2.2,81,0.00,,---,0.00,VWS V14.01,2013-02-24 15:20:00,
2013-02-24 09:25:00,21.6,16.4,29.03,West,270,2.7,3.1,80,0.00,,---,0.00,VWS V14.01,2013-02-24 15:25:00,
2013-02-24 09:30:00,21.9,16.7,29.03,West,270,0.0,0.0,80,0.00,,---,0.00,VWS V14.01,2013-02-24 15:30:00,
2013-02-24 09:35:00,22.3,16.8,29.03,West,270,3.1,3.1,79,0.00,,---,0.00,VWS V14.01,2013-02-24 15:35:00,
2013-02-24 09:40:00,22.6,16.8,29.03,West,270,0.0,0.0,78,0.00,,---,0.00,VWS V14.01,2013-02-24 15:40:00,
2013-02-24 09:45:00,23.0,17.2,29.03,West,270,0.0,0.0,78,0.00,,---,0.00,VWS V14.01,2013-02-24 15:45:00,
2013-02-24 09:50:00,23.4,17.5,29.03,West,270,2.7,3.1,78,0.00,,---,0.00,VWS V14.01,2013-02-24 15:50:00,
2013-02-24 09:55:00,23.5,17.7,29.03,West,270,0.0,0.0,78,0.00,,---,0.00,VWS V14.01,2013-02-24 15:55:00,
2013-02-24 10:00:00,24.1,17.9,29.03,West,270,2.7,2.7,77,0.00,,---,0.00,VWS V14.01,2013-02-24 16:00:00,
2013-02-24 10:05:00,24.4,18.3,29.03,West,270,0.0,0.0,77,0.00,,---,0.00,VWS V14.01,2013-02-24 16:05:00,
2013-02-24 10:10:00,24.6,17.8,29.03,West,270,3.6,3.6,75,0.00,,---,0.00,VWS V14.01,2013-02-24 16:10:00,
2013-02-24 10:15:00,25.2,17.7,29.03,West,270,2.7,2.7,73,0.00,,---,0.00,VWS V14.01,2013-02-24 16:15:00,
2013-02-24 10:20:00,25.3,17.6,29.03,West,270,2.7,2.7,72,0.00,,---,0.00,VWS V14.01,2013-02-24 16:20:00,
2013-02-24 10:25:00,25.5,17.4,29.03,West,270,2.2,2.7,71,0.00,,---,0.00,VWS V14.01,2013-02-24 16:25:00,
2013-02-24 10:30:00,26.1,18.0,29.03,West,270,0.0,0.0,71,0.00,,---,0.00,VWS V14.01,2013-02-24 16:30:00,
2013-02-24 10:36:00,26.1,17.6,29.03,West,270,0.0,3.1,70,0.00,,---,0.00,VWS V14.01,2013-02-24 16:36:00,
2013-02-24 10:41:00,26.1,17.3,29.03,West,270,2.7,3.6,69,0.00,,---,0.00,VWS V14.01,2013-02-24 16:41:00,
2013-02-24 10:46:00,26.6,17.5,29.03,West,270,0.0,0.0,68,0.00,,---,0.00,VWS V14.01,2013-02-24 16:46:00,
2013-02-24 10:51:00,27.0,17.5,29.03,West,270,0.0,0.0,67,0.00,,---,0.00,VWS V14.01,2013-02-24 16:51:00,
2013-02-24 10:56:00,27.1,17.3,29.03,West,270,2.7,2.7,66,0.00,,---,0.00,VWS V14.01,2013-02-24 16:56:00,
2013-02-24 11:01:00,27.7,17.8,29.03,West,270,0.0,2.2,66,0.00,,---,0.00,VWS V14.01,2013-02-24 17:01:00,
2013-02-24 11:06:00,28.0,17.8,29.03,West,270,0.0,2.2,65,0.00,,---,0.00,VWS V14.01,2013-02-24 17:06:00,
2013-02-24 11:11:00,28.6,18.3,29.03,West,270,0.0,0.0,65,0.00,,---,0.00,VWS V14.01,2013-02-24 17:11:00,
2013-02-24 11:16:00,28.9,18.3,29.03,West,270,0.0,0.0,64,0.00,,---,0.00,VWS V14.01,2013-02-24 17:16:00,
2013-02-24 11:21:00,29.5,18.1,29.03,West,270,0.0,0.0,62,0.00,,---,0.00,VWS V14.01,2013-02-24 17:21:00,
2013-02-24 11:26:00,29.8,18.0,29.03,West,270,0.0,0.0,61,0.00,,---,0.00,VWS V14.01,2013-02-24 17:26:00,
2013-02-24 11:31:00,30.2,18.0,29.06,West,270,0.0,0.0,60,0.00,,---,0.00,VWS V14.01,2013-02-24 17:31:00,
2013-02-24 11:36:00,30.6,18.0,29.06,West,270,2.7,3.1,59,0.00,,---,0.00,VWS V14.01,2013-02-24 17:36:00,
2013-02-24 11:42:00,30.7,18.1,29.06,West,270,2.7,3.6,59,0.00,,---,0.00,VWS V14.01,2013-02-24 17:42:00,
2013-02-24 11:47:00,31.1,18.5,29.03,West,270,3.1,3.1,59,0.00,,---,0.00,VWS V14.01,2013-02-24 17:47:00,
2013-02-24 11:52:00,31.5,19.2,29.03,West,270,3.1,3.1,60,0.00,,---,0.00,VWS V14.01,2013-02-24 17:52:00,
2013-02-24 11:57:00,31.6,19.0,29.03,West,270,2.2,2.7,59,0.00,,---,0.00,VWS V14.01,2013-02-24 17:57:00,
2013-02-24 12:02:00,32.0,19.3,29.03,West,270,3.6,3.6,59,0.00,,---,0.00,VWS V14.01,2013-02-24 18:02:00,
2013-02-24 12:07:00,32.2,19.1,29.03,West,270,2.7,2.7,58,0.00,,---,0.00,VWS V14.01,2013-02-24 18:07:00,
2013-02-24 12:12:00,32.2,18.7,29.03,West,270,2.7,3.1,57,0.00,,---,0.00,VWS V14.01,2013-02-24 18:12:00,
2013-02-24 12:17:00,32.2,18.7,29.06,West,270,3.1,3.1,57,0.00,,---,0.00,VWS V14.01,2013-02-24 18:17:00,
2013-02-24 12:22:00,32.2,18.7,29.06,West,270,4.0,4.0,57,0.00,,---,0.00,VWS V14.01,2013-02-24 18:22:00,
2013-02-24 12:27:00,32.5,19.0,29.06,West,270,3.1,3.6,57,0.00,,---,0.00,VWS V14.01,2013-02-24 18:27:00,
2013-02-24 12:32:00,32.5,19.0,29.06,West,270,2.7,4.0,57,0.00,,---,0.00,VWS V14.01,2013-02-24 18:32:00,
2013-02-24 12:37:00,32.5,19.0,29.06,West,270,4.0,4.0,57,0.00,,---,0.00,VWS V14.01,2013-02-24 18:37:00,
2013-02-24 12:42:00,32.7,19.2,29.06,West,270,3.1,4.0,57,0.00,,---,0.00,VWS V14.01,2013-02-24 18:42:00,
2013-02-24 12:47:00,33.1,19.5,29.06,West,270,3.1,3.6,57,0.00,,---,0.00,VWS V14.01,2013-02-24 18:47:00,
2013-02-24 12:52:00,33.3,19.7,29.06,West,270,4.0,4.9,57,0.00,,---,0.00,VWS V14.01,2013-02-24 18:52:00,
2013-02-24 12:57:00,33.8,19.8,29.06,West,270,3.6,4.0,56,0.00,,---,0.00,VWS V14.01,2013-02-24 18:57:00,
2013-02-24 13:03:00,34.0,20.0,29.06,West,270,3.6,5.8,56,0.00,,---,0.00,VWS V14.01,2013-02-24 19:03:00,
2013-02-24 13:08:00,34.0,20.0,29.06,West,270,4.0,4.9,56,0.00,,---,0.00,VWS V14.01,2013-02-24 19:08:00,
2013-02-24 13:13:00,33.8,19.8,29.06,West,270,4.0,4.0,56,0.00,,---,0.00,VWS V14.01,2013-02-24 19:13:00,
2013-02-24 13:18:00,34.0,19.5,29.06,West,270,4.0,4.9,55,0.00,,---,0.00,VWS V14.01,2013-02-24 19:18:00,
2013-02-24 13:23:00,34.2,19.7,29.06,West,270,2.7,3.6,55,0.00,,---,0.00,VWS V14.01,2013-02-24 19:23:00,
2013-02-24 13:28:00,34.2,19.3,29.06,West,270,4.9,5.4,54,0.00,,---,0.00,VWS V14.01,2013-02-24 19:28:00,
2013-02-24 13:33:00,34.0,19.5,29.06,West,270,4.5,4.9,55,0.00,,---,0.00,VWS V14.01,2013-02-24 19:33:00,
2013-02-24 13:38:00,33.6,19.2,29.06,West,270,4.0,5.8,55,0.00,,---,0.00,VWS V14.01,2013-02-24 19:38:00,
2013-02-24 13:43:00,33.6,19.2,29.06,West,270,4.0,5.8,55,0.00,,---,0.00,VWS V14.01,2013-02-24 19:43:00,
2013-02-24 13:49:00,33.6,18.8,29.06,West,270,4.9,4.9,54,0.00,,---,0.00,VWS V14.01,2013-02-24 19:49:00,
2013-02-24 13:54:00,33.3,18.9,29.06,West,270,3.6,3.6,55,0.00,,---,0.00,VWS V14.01,2013-02-24 19:54:00,
2013-02-24 13:59:00,33.4,19.0,29.06,West,270,4.9,4.9,55,0.00,,---,0.00,VWS V14.01,2013-02-24 19:59:00,
2013-02-24 14:04:00,33.3,19.3,29.06,West,270,4.0,4.0,56,0.00,,---,0.00,VWS V14.01,2013-02-24 20:04:00,
2013-02-24 14:09:00,33.3,19.3,29.06,West,270,4.0,4.9,56,0.00,,---,0.00,VWS V14.01,2013-02-24 20:09:00,
2013-02-24 14:14:00,33.3,19.3,29.06,West,270,3.6,4.0,56,0.00,,---,0.00,VWS V14.01,2013-02-24 20:14:00,
2013-02-24 14:19:00,33.3,19.3,29.06,West,270,4.0,4.0,56,0.00,,---,0.00,VWS V14.01,2013-02-24 20:19:00,
2013-02-24 14:24:00,33.1,18.7,29.06,West,270,3.6,4.0,55,0.00,,---,0.00,VWS V14.01,2013-02-24 20:24:00,
2013-02-24 14:29:00,33.3,18.9,29.03,West,270,4.0,4.9,55,0.00,,---,0.00,VWS V14.01,2013-02-24 20:29:00,
2013-02-24 14:34:00,33.3,18.9,29.03,West,270,4.0,4.9,55,0.00,,---,0.00,VWS V14.01,2013-02-24 20:34:00,
2013-02-24 14:39:00,33.3,18.9,29.03,West,270,3.6,4.0,55,0.00,,---,0.00,VWS V14.01,2013-02-24 20:39:00,
2013-02-24 14:44:00,33.4,19.0,29.06,West,270,2.2,3.6,55,0.00,,---,0.00,VWS V14.01,2013-02-24 20:44:00,
2013-02-24 14:49:00,33.4,19.0,29.06,West,270,3.1,4.0,55,0.00,,---,0.00,VWS V14.01,2013-02-24 20:49:00,
2013-02-24 14:55:00,33.3,18.9,29.06,West,270,4.9,4.9,55,0.00,,---,0.00,VWS V14.01,2013-02-24 20:55:00,
2013-02-24 15:00:00,33.1,18.7,29.06,West,270,3.1,4.0,55,0.00,,---,0.00,VWS V14.01,2013-02-24 21:00:00,
2013-02-24 15:05:00,33.3,18.9,29.06,West,270,3.6,3.6,55,0.00,,---,0.00,VWS V14.01,2013-02-24 21:05:00,
2013-02-24 15:10:00,33.6,19.2,29.06,West,270,3.1,3.6,55,0.00,,---,0.00,VWS V14.01,2013-02-24 21:10:00,
2013-02-24 15:15:00,33.4,18.6,29.06,West,270,4.0,4.0,54,0.00,,---,0.00,VWS V14.01,2013-02-24 21:15:00,
2013-02-24 15:20:00,33.3,18.9,29.06,West,270,3.1,3.1,55,0.00,,---,0.00,VWS V14.01,2013-02-24 21:20:00,
2013-02-24 15:25:00,33.4,18.6,29.06,West,270,3.1,3.1,54,0.00,,---,0.00,VWS V14.01,2013-02-24 21:25:00,
2013-02-24 15:30:00,33.4,18.6,29.06,West,270,2.2,4.0,54,0.00,,---,0.00,VWS V14.01,2013-02-24 21:30:00,
2013-02-24 15:35:00,33.6,18.8,29.06,West,270,2.7,2.7,54,0.00,,---,0.00,VWS V14.01,2013-02-24 21:35:00,
2013-02-24 15:40:00,33.4,18.2,29.06,West,270,0.0,3.6,53,0.00,,---,0.00,VWS V14.01,2013-02-24 21:40:00,
2013-02-24 15:45:00,33.4,18.6,29.06,West,270,2.7,2.7,54,0.00,,---,0.00,VWS V14.01,2013-02-24 21:45:00,
2013-02-24 15:51:00,33.3,18.4,29.06,West,270,2.7,3.1,54,0.00,,---,0.00,VWS V14.01,2013-02-24 21:51:00,
2013-02-24 15:56:00,33.1,17.8,29.06,West,270,3.1,3.6,53,0.00,,---,0.00,VWS V14.01,2013-02-24 21:56:00,
2013-02-24 16:01:00,33.1,18.3,29.06,West,270,3.1,3.6,54,0.00,,---,0.00,VWS V14.01,2013-02-24 22:01:00,
2013-02-24 16:06:00,33.1,18.3,29.06,West,270,3.6,4.5,54,0.00,,---,0.00,VWS V14.01,2013-02-24 22:06:00,
2013-02-24 16:11:00,33.1,18.7,29.06,West,270,2.7,2.7,55,0.00,,---,0.00,VWS V14.01,2013-02-24 22:11:00,
2013-02-24 16:16:00,33.1,18.7,29.06,West,270,3.1,3.1,55,0.00,,---,0.00,VWS V14.01,2013-02-24 22:16:00,
2013-02-24 16:21:00,32.9,18.5,29.06,West,270,4.0,4.0,55,0.00,,---,0.00,VWS V14.01,2013-02-24 22:21:00,
2013-02-24 16:26:00,32.9,18.5,29.06,West,270,2.2,3.1,55,0.00,,---,0.00,VWS V14.01,2013-02-24 22:26:00,
2013-02-24 16:31:00,32.7,18.4,29.03,West,270,3.6,3.6,55,0.00,,---,0.00,VWS V14.01,2013-02-24 22:31:00,
2013-02-24 16:36:00,32.7,18.4,29.03,West,270,0.0,0.0,55,0.00,,---,0.00,VWS V14.01,2013-02-24 22:36:00,
2013-02-24 16:42:00,32.5,18.2,29.03,West,270,2.2,2.2,55,0.00,,---,0.00,VWS V14.01,2013-02-24 22:42:00,
2013-02-24 16:47:00,32.5,18.2,29.03,West,270,0.0,0.0,55,0.00,,---,0.00,VWS V14.01,2013-02-24 22:47:00,
2013-02-24 16:52:00,32.5,18.2,29.03,West,270,0.0,0.0,55,0.00,,---,0.00,VWS V14.01,2013-02-24 22:52:00,
2013-02-24 16:57:00,32.4,18.0,29.03,West,270,0.0,0.0,55,0.00,,---,0.00,VWS V14.01,2013-02-24 22:57:00,
2013-02-24 17:02:00,31.8,17.5,29.06,West,270,0.0,0.0,55,0.00,,---,0.00,VWS V14.01,2013-02-24 23:02:00,
2013-02-24 17:07:00,31.5,17.6,29.06,West,270,0.0,0.0,56,0.00,,---,0.00,VWS V14.01,2013-02-24 23:07:00,
2013-02-24 17:12:00,30.9,17.9,29.06,West,270,0.0,0.0,58,0.00,,---,0.00,VWS V14.01,2013-02-24 23:12:00,
2013-02-24 17:17:00,30.4,17.8,29.06,West,270,0.0,0.0,59,0.00,,---,0.00,VWS V14.01,2013-02-24 23:17:00,
2013-02-24 17:22:00,30.0,17.8,29.06,West,270,0.0,0.0,60,0.00,,---,0.00,VWS V14.01,2013-02-24 23:22:00,
2013-02-24 17:27:00,29.5,17.7,29.06,West,270,0.0,0.0,61,0.00,,---,0.00,VWS V14.01,2013-02-24 23:27:00,
2013-02-24 17:32:00,29.1,17.7,29.06,West,270,0.0,0.0,62,0.00,,---,0.00,VWS V14.01,2013-02-24 23:32:00,
2013-02-24 17:37:00,28.6,17.6,29.06,West,270,0.0,0.0,63,0.00,,---,0.00,VWS V14.01,2013-02-24 23:37:00,
2013-02-24 17:42:00,28.2,18.7,29.06,West,270,0.0,0.0,67,0.00,,---,0.00,VWS V14.01,2013-02-24 23:42:00,
2013-02-24 17:47:00,27.9,19.0,29.06,West,270,0.0,0.0,69,0.00,,---,0.00,VWS V14.01,2013-02-24 23:47:00,
2013-02-24 17:53:00,27.7,19.2,29.06,West,270,0.0,0.0,70,0.00,,---,0.00,VWS V14.01,2013-02-24 23:53:00,
2013-02-24 17:58:00,27.5,19.4,29.06,West,270,0.0,0.0,71,0.00,,---,0.00,VWS V14.01,2013-02-24 23:58:00,
2013-02-24 18:03:00,27.5,19.4,29.06,West,270,0.0,0.0,71,0.00,,---,0.00,VWS V14.01,2013-02-25 00:03:00,
2013-02-24 18:08:00,27.7,19.9,29.06,West,270,0.0,0.0,72,0.00,,---,0.00,VWS V14.01,2013-02-25 00:08:00,
2013-02-24 18:13:00,27.5,19.7,29.06,West,270,0.0,0.0,72,0.00,,---,0.00,VWS V14.01,2013-02-25 00:13:00,
2013-02-24 18:18:00,27.3,19.5,29.06,West,270,0.0,0.0,72,0.00,,---,0.00,VWS V14.01,2013-02-25 00:18:00,
2013-02-24 18:23:00,28.0,20.2,29.06,West,270,0.0,0.0,72,0.00,,---,0.00,VWS V14.01,2013-02-25 00:23:00,
2013-02-24 18:28:00,27.9,20.3,29.06,West,270,0.0,0.0,73,0.00,,---,0.00,VWS V14.01,2013-02-25 00:28:00,
2013-02-24 18:33:00,27.3,19.5,29.06,West,270,0.0,0.0,72,0.00,,---,0.00,VWS V14.01,2013-02-25 00:33:00,
2013-02-24 18:38:00,27.0,19.1,29.06,West,270,0.0,0.0,72,0.00,,---,0.00,VWS V14.01,2013-02-25 00:38:00,
2013-02-24 18:43:00,26.8,19.0,29.06,West,270,0.0,0.0,72,0.00,,---,0.00,VWS V14.01,2013-02-25 00:43:00,
2013-02-24 18:48:00,26.2,18.5,29.06,West,270,0.0,0.0,72,0.00,,---,0.00,VWS V14.01,2013-02-25 00:48:00,
2013-02-24 18:54:00,26.1,18.6,29.06,West,270,0.0,0.0,73,0.00,,---,0.00,VWS V14.01,2013-02-25 00:54:00,
2013-02-24 18:59:00,26.1,18.6,29.06,West,270,0.0,0.0,73,0.00,,---,0.00,VWS V14.01,2013-02-25 00:59:00,
2013-02-24 19:04:00,25.7,18.6,29.06,West,270,0.0,0.0,74,0.00,,---,0.00,VWS V14.01,2013-02-25 01:04:00,
2013-02-24 19:09:00,25.3,18.2,29.06,West,270,0.0,0.0,74,0.00,,---,0.00,VWS V14.01,2013-02-25 01:09:00,
2013-02-24 19:14:00,25.5,18.7,29.06,West,270,0.0,0.0,75,0.00,,---,0.00,VWS V14.01,2013-02-25 01:14:00,
2013-02-24 19:19:00,25.5,19.3,29.06,West,270,0.0,0.0,77,0.00,,---,0.00,VWS V14.01,2013-02-25 01:19:00,
2013-02-24 19:24:00,25.7,19.8,29.06,West,270,0.0,0.0,78,0.00,,---,0.00,VWS V14.01,2013-02-25 01:24:00,
2013-02-24 19:29:00,25.5,19.9,29.06,West,270,0.0,0.0,79,0.00,,---,0.00,VWS V14.01,2013-02-25 01:29:00,
2013-02-24 19:34:00,25.5,19.9,29.06,West,270,0.0,0.0,79,0.00,,---,0.00,VWS V14.01,2013-02-25 01:34:00,
2013-02-24 19:40:00,25.3,19.8,29.06,West,270,0.0,0.0,79,0.00,,---,0.00,VWS V14.01,2013-02-25 01:40:00,
2013-02-24 19:45:00,25.3,20.0,29.06,West,270,0.0,0.0,80,0.00,,---,0.00,VWS V14.01,2013-02-25 01:45:00,
2013-02-24 19:50:00,25.0,19.7,29.06,West,270,0.0,0.0,80,0.00,,---,0.00,VWS V14.01,2013-02-25 01:50:00,
2013-02-24 19:55:00,24.4,19.2,29.06,West,270,0.0,0.0,80,0.00,,---,0.00,VWS V14.01,2013-02-25 01:55:00,
2013-02-24 20:00:00,23.9,18.6,29.06,West,270,0.0,0.0,80,0.00,,---,0.00,VWS V14.01,2013-02-25 02:00:00,
2013-02-24 20:05:00,23.4,18.1,29.06,West,270,0.0,0.0,80,0.00,,---,0.00,VWS V14.01,2013-02-25 02:05:00,
2013-02-24 20:10:00,22.8,17.6,29.06,West,270,0.0,0.0,80,0.00,,---,0.00,VWS V14.01,2013-02-25 02:10:00,
2013-02-24 20:15:00,22.1,16.9,29.06,West,270,0.0,0.0,80,0.00,,---,0.00,VWS V14.01,2013-02-25 02:15:00,
2013-02-24 20:20:00,21.6,16.4,29.06,West,270,0.0,0.0,80,0.00,,---,0.00,VWS V14.01,2013-02-25 02:20:00,
2013-02-24 20:25:00,21.2,16.3,29.06,West,270,0.0,0.0,81,0.00,,---,0.00,VWS V14.01,2013-02-25 02:25:00,
2013-02-24 20:31:00,21.0,16.4,29.06,West,270,0.0,0.0,82,0.00,,---,0.00,VWS V14.01,2013-02-25 02:31:00,
2013-02-24 20:36:00,20.7,16.0,29.06,West,270,0.0,0.0,82,0.00,,---,0.00,VWS V14.01,2013-02-25 02:36:00,
2013-02-24 20:41:00,20.3,16.0,29.06,West,270,0.0,0.0,83,0.00,,---,0.00,VWS V14.01,2013-02-25 02:41:00,
2013-02-24 20:46:00,19.6,15.3,29.06,West,270,0.0,0.0,83,0.00,,---,0.00,VWS V14.01,2013-02-25 02:46:00,
2013-02-24 20:51:00,19.9,15.9,29.06,West,270,0.0,0.0,84,0.00,,---,0.00,VWS V14.01,2013-02-25 02:51:00,
2013-02-24 20:56:00,20.1,16.6,29.06,West,270,0.0,0.0,86,0.00,,---,0.00,VWS V14.01,2013-02-25 02:56:00,
2013-02-24 21:01:00,20.5,17.5,29.06,West,270,0.0,0.0,88,0.00,,---,0.00,VWS V14.01,2013-02-25 03:01:00,
2013-02-24 21:06:00,20.5,17.8,29.06,West,270,0.0,0.0,89,0.00,,---,0.00,VWS V14.01,2013-02-25 03:06:00,
2013-02-24 21:11:00,20.3,17.6,29.06,West,270,0.0,0.0,89,0.00,,---,0.00,VWS V14.01,2013-02-25 03:11:00,
2013-02-24 21:16:00,19.8,17.3,29.06,West,270,0.0,0.0,90,0.00,,---,0.00,VWS V14.01,2013-02-25 03:16:00,
2013-02-24 21:21:00,19.4,17.0,29.06,West,270,0.0,0.0,90,0.00,,---,0.00,VWS V14.01,2013-02-25 03:21:00,
2013-02-24 21:27:00,18.9,16.7,29.06,West,270,0.0,0.0,91,0.00,,---,0.00,VWS V14.01,2013-02-25 03:27:00,
2013-02-24 21:32:00,18.5,16.3,29.06,West,270,0.0,0.0,91,0.00,,---,0.00,VWS V14.01,2013-02-25 03:32:00,
2013-02-24 21:37:00,18.3,16.1,29.06,West,270,0.0,0.0,91,0.00,,---,0.00,VWS V14.01,2013-02-25 03:37:00,
2013-02-24 21:42:00,18.1,16.0,29.06,West,270,0.0,0.0,91,0.00,,---,0.00,VWS V14.01,2013-02-25 03:42:00,
2013-02-24 21:47:00,17.6,15.7,29.06,West,270,0.0,0.0,92,0.00,,---,0.00,VWS V14.01,2013-02-25 03:47:00,
2013-02-24 21:52:00,17.2,15.3,29.06,West,270,0.0,0.0,92,0.00,,---,0.00,VWS V14.01,2013-02-25 03:52:00,
2013-02-24 21:57:00,17.2,15.3,29.06,West,270,0.0,0.0,92,0.00,,---,0.00,VWS V14.01,2013-02-25 03:57:00,
2013-02-24 22:03:00,17.4,15.5,29.06,West,270,0.0,0.0,92,0.00,,---,0.00,VWS V14.01,2013-02-25 04:03:00,
2013-02-24 22:08:00,18.3,16.6,29.06,West,270,0.0,0.0,93,0.00,,---,0.00,VWS V14.01,2013-02-25 04:08:00,
2013-02-24 22:13:00,18.7,17.2,29.06,West,270,0.0,0.0,94,0.00,,---,0.00,VWS V14.01,2013-02-25 04:13:00,
2013-02-24 22:18:00,18.7,17.2,29.06,West,270,0.0,0.0,94,0.00,,---,0.00,VWS V14.01,2013-02-25 04:18:00,
2013-02-24 22:23:00,18.5,17.3,29.06,West,270,0.0,0.0,95,0.00,,---,0.00,VWS V14.01,2013-02-25 04:23:00,
2013-02-24 22:28:00,18.7,17.5,29.06,West,270,0.0,0.0,95,0.00,,---,0.00,VWS V14.01,2013-02-25 04:28:00,
2013-02-24 22:33:00,18.7,17.5,29.06,West,270,0.0,0.0,95,0.00,,---,0.00,VWS V14.01,2013-02-25 04:33:00,
2013-02-24 22:38:00,18.7,17.7,29.06,West,270,0.0,0.0,96,0.00,,---,0.00,VWS V14.01,2013-02-25 04:38:00,
2013-02-24 22:43:00,18.7,17.7,29.06,West,270,0.0,0.0,96,0.00,,---,0.00,VWS V14.01,2013-02-25 04:43:00,
2013-02-24 22:48:00,18.5,17.5,29.06,West,270,0.0,0.0,96,0.00,,---,0.00,VWS V14.01,2013-02-25 04:48:00,
2013-02-24 22:53:00,18.3,17.4,29.06,West,270,0.0,0.0,96,0.00,,---,0.00,VWS V14.01,2013-02-25 04:53:00,
2013-02-24 22:58:00,18.1,17.2,29.06,West,270,0.0,0.0,96,0.00,,---,0.00,VWS V14.01,2013-02-25 04:58:00,
2013-02-24 23:00:00,18.1,17.2,29.06,West,270,0.0,0.0,96,0.00,,---,0.00,VWS V14.01,2013-02-25 05:00:00,
2013-02-24 23:04:00,18.1,17.2,29.06,West,270,0.0,0.0,96,0.00,,---,0.00,VWS V14.01,2013-02-25 05:04:00,
2013-02-24 23:09:00,18.0,17.0,29.06,West,270,0.0,0.0,96,0.00,,---,0.00,VWS V14.01,2013-02-25 05:09:00,
2013-02-24 23:15:00,17.6,16.9,29.06,West,270,0.0,0.0,97,0.00,,---,0.00,VWS V14.01,2013-02-25 05:15:00,
2013-02-24 23:20:00,18.0,17.2,29.06,West,270,0.0,0.0,97,0.00,,---,0.00,VWS V14.01,2013-02-25 05:20:00,
2013-02-24 23:25:00,17.8,17.1,29.06,West,270,0.0,0.0,97,0.00,,---,0.00,VWS V14.01,2013-02-25 05:25:00,
2013-02-24 23:30:00,17.6,16.9,29.09,West,270,0.0,0.0,97,0.00,,---,0.00,VWS V14.01,2013-02-25 05:30:00,
2013-02-24 23:35:00,17.6,17.1,29.09,West,270,0.0,0.0,98,0.00,,---,0.00,VWS V14.01,2013-02-25 05:35:00,
2013-02-24 23:40:00,17.1,16.6,29.09,West,270,0.0,0.0,98,0.00,,---,0.00,VWS V14.01,2013-02-25 05:40:00,
2013-02-24 23:45:00,16.9,16.2,29.09,West,270,0.0,0.0,97,0.00,,---,0.00,VWS V14.01,2013-02-25 05:45:00,
2013-02-24 23:50:00,16.5,15.8,29.09,West,270,0.0,0.0,97,0.00,,---,0.00,VWS V14.01,2013-02-25 05:50:00,
2013-02-24 23:55:00,16.2,15.5,29.09,West,270,0.0,0.0,97,0.00,,---,0.00,VWS V14.01,2013-02-25 05:55:00,